Regional Weather Roundup
Issued by NWS

Home | Current Version | Previous Version | Graphics & Text | Print | Product List | Glossary On
Versions: 1 2 3 4 5 6 7 8 9 10 11 12 13 14 15 16 17 18 19 20 21 22 23 24 25 26
000
ASUS45 KBOI 251710
RWRID

IDAHO REGIONAL WEATHER ROUNDUP
NATIONAL WEATHER SERVICE BOISE ID
1100 AM MDT WED MAY 25 2016

NOTE: "FAIR" INDICATES FEW OR NO CLOUDS BELOW 12000 FEET
WITH NO SIGNIFICANT WEATHER AND/OR OBSTRUCTIONS TO VISIBILITY

IDZ012-014-251800-
SOUTHWEST IDAHO


CITY           SKY/WX    TMP DP  RH WIND       PRES   REMARKS
BOISE          MOSUNNY   62  40  44 NW13      30.02S
CALDWELL       MOSUNNY   64  44  48 SW12      30.03R
MOUNTAIN HOME  PTSUNNY   63  46  53 W10       30.03R
$$

IDZ016-017-251800-
SOUTHCENTRAL IDAHO


CITY           SKY/WX    TMP DP  RH WIND       PRES   REMARKS
BURLEY         PTSUNNY   57  41  55 W12G20    30.02R
JEROME         PTSUNNY   55  43  63 W12       30.04S
TWIN FALLS     PTSUNNY   55  42  61 W13       30.05R
$$

IDZ019>023-251800-
SOUTHEAST IDAHO


CITY           SKY/WX    TMP DP  RH WIND       PRES   REMARKS
IDAHO FALLS    CLOUDY    52  44  74 SW9       30.03S
POCATELLO      MOSUNNY   57  43  59 SW21      30.03S
REXBURG        CLOUDY    49  43  80 W3        30.03S
$$

IDZ006-010-011-018-031-032-251800-
CENTRAL IDAHO MOUNTAINS


CITY           SKY/WX    TMP DP  RH WIND       PRES   REMARKS
MCCALL         CLOUDY    53  33  46 NW8       30.02S
HAILEY         MOSUNNY   55  45  67 SE9       30.04S
STANLEY          N/A     53  34  48 VRB6      30.04F
SALMON         CLOUDY    54  39  58 N7        30.02R
CHALLIS        CLOUDY    51  39  63 CALM      30.02S
$$

IDZ002-004-006-007-026-251800-
NORTHERN IDAHO


CITY           SKY/WX    TMP DP  RH WIND       PRES   REMARKS
LEWISTON       CLOUDY    57  48  72 NE3       30.04R
LOWELL           N/A     58  46  64 CALM      30.05F
COEUR D`ALENE  PTSUNNY   61  50  67 SE6       29.99S
MULLAN PASS    CLOUDY    43  42  97 VRB6      30.05R FOG
$$




USA.gov is the U.S. government's official web portal to all federal, state and local government web resources and services.